contact:dominique.lefevre@mio.osupytheas.fr, maurice.libes@osupytheas.fr, didier.mallarino@osupytheas.fr
Project:EMSO http://www.emso-fr.org/EMSO-France
Depth: 2436.0 m
Title:EMSO Ligure Ouest : Data MII capteur CSTAR
DateTime,Latitude,Longitude,Instrument_Serial,Reference_Counts,Signal_Counts,Corrected_Signal_raw_counts,Calculated_Beam_c_inverse_meters,Internal_thermistor_counts
DateTime,Latitude,Longitude,Instrument_Serial,Reference_Counts,Signal_Counts,Corrected_Signal_raw_counts,Calculated_Beam_c_inverse_meters,Internal_thermistor_counts
2022-10-24T00:02:53,42.805,6.029,CST-1368DR,4530,5088,11950,01.070,551
2022-10-24T00:05:54,42.805,6.029,CST-1368DR,4530,5087,11947,01.071,551
2022-10-24T00:08:56,42.805,6.029,CST-1368DR,4530,5088,11951,01.070,551
2022-10-24T00:11:58,42.805,6.029,CST-1368DR,4530,5086,11945,01.072,551
2022-10-24T00:14:59,42.805,6.029,CST-1368DR,4530,5085,11943,01.073,551
2022-10-24T00:18:01,42.805,6.029,CST-1368DR,4530,5089,11954,01.069,551
2022-10-24T00:21:02,42.805,6.029,CST-1368DR,4530,5085,11944,01.072,551
2022-10-24T00:24:04,42.805,6.029,CST-1368DR,4530,5089,11953,01.069,551
2022-10-24T00:27:06,42.805,6.029,CST-1368DR,4530,5085,11943,01.073,551
2022-10-24T00:30:07,42.805,6.029,CST-1368DR,4530,5085,11942,01.073,551
2022-10-24T00:33:09,42.805,6.029,CST-1368DR,4530,5081,11935,01.075,551
2022-10-24T00:36:10,42.805,6.029,CST-1368DR,4530,5086,11946,01.072,551
2022-10-24T00:39:12,42.805,6.029,CST-1368DR,4530,5084,11942,01.073,551
2022-10-24T00:42:13,42.805,6.029,CST-1368DR,4530,5087,11949,01.071,551
2022-10-24T00:45:15,42.805,6.029,CST-1368DR,4530,5077,11925,01.079,551
2022-10-24T00:48:17,42.805,6.029,CST-1368DR,4530,5086,11947,01.071,551
2022-10-24T00:51:18,42.805,6.029,CST-1368DR,4530,5087,11948,01.071,551
2022-10-24T00:54:20,42.805,6.029,CST-1368DR,4530,5086,11947,01.071,551
2022-10-24T00:57:21,42.805,6.029,CST-1368DR,4530,5087,11948,01.071,551
2022-10-24T01:00:23,42.805,6.029,CST-1368DR,4530,5085,11944,01.072,551
2022-10-24T01:03:25,42.805,6.029,CST-1368DR,4530,5087,11948,01.071,551
2022-10-24T01:06:26,42.805,6.029,CST-1368DR,4530,5086,11945,01.072,551
2022-10-24T01:09:28,42.805,6.029,CST-1368DR,4530,5091,11958,01.068,551
2022-10-24T01:12:29,42.805,6.029,CST-1368DR,4530,5086,11947,01.071,551
2022-10-24T01:15:31,42.805,6.029,CST-1368DR,4530,5085,11944,01.072,551
2022-10-24T01:18:32,42.805,6.029,CST-1368DR,4530,5089,11953,01.069,551
2022-10-24T01:21:34,42.805,6.029,CST-1368DR,4530,5090,11954,01.069,551
2022-10-24T01:24:36,42.805,6.029,CST-1368DR,4530,5084,11940,01.074,551
2022-10-24T01:27:37,42.805,6.029,CST-1368DR,4530,5087,11948,01.071,551
2022-10-24T01:30:39,42.805,6.029,CST-1368DR,4530,5090,11954,01.069,551
2022-10-24T01:33:40,42.805,6.029,CST-1368DR,4530,5082,11937,01.075,551
2022-10-24T01:36:42,42.805,6.029,CST-1368DR,4530,5087,11948,01.071,551
2022-10-24T01:39:43,42.805,6.029,CST-1368DR,4530,5091,11957,01.068,551
2022-10-24T01:42:45,42.805,6.029,CST-1368DR,4530,5088,11950,01.070,551
2022-10-24T01:45:47,42.805,6.029,CST-1368DR,4530,5090,11955,01.069,551
2022-10-24T01:48:48,42.805,6.029,CST-1368DR,4530,5091,11958,01.068,551
2022-10-24T01:51:50,42.805,6.029,CST-1368DR,4530,5091,11957,01.068,551
2022-10-24T01:54:51,42.805,6.029,CST-1368DR,4530,5086,11945,01.072,551
2022-10-24T01:57:53,42.805,6.029,CST-1368DR,4530,5083,11938,01.074,551
2022-10-24T02:00:55,42.805,6.029,CST-1368DR,4530,5088,11950,01.070,551
2022-10-24T02:03:56,42.805,6.029,CST-1368DR,4530,5084,11941,01.073,551
2022-10-24T02:06:58,42.805,6.029,CST-1368DR,4530,5085,11944,01.072,551
2022-10-24T02:09:59,42.805,6.029,CST-1368DR,4530,5087,11947,01.071,551
2022-10-24T02:13:01,42.805,6.029,CST-1368DR,4530,5085,11944,01.072,551
2022-10-24T02:16:02,42.805,6.029,CST-1368DR,4530,5088,11950,01.070,551
2022-10-24T02:19:04,42.805,6.029,CST-1368DR,4530,5083,11940,01.074,551
2022-10-24T02:22:06,42.805,6.029,CST-1368DR,4530,5086,11947,01.071,551
2022-10-24T02:25:07,42.805,6.029,CST-1368DR,4530,5091,11957,01.068,551
2022-10-24T02:28:09,42.805,6.029,CST-1368DR,4530,5090,11954,01.069,551
2022-10-24T02:31:10,42.805,6.029,CST-1368DR,4530,5088,11950,01.070,551
2022-10-24T02:34:12,42.805,6.029,CST-1368DR,4530,5088,11950,01.070,551
2022-10-24T02:37:13,42.805,6.029,CST-1368DR,4530,5083,11940,01.074,551
2022-10-24T02:40:15,42.805,6.029,CST-1368DR,4530,5084,11941,01.073,551
2022-10-24T02:43:17,42.805,6.029,CST-1368DR,4530,5087,11948,01.071,551
2022-10-24T02:46:18,42.805,6.029,CST-1368DR,4530,5087,11947,01.071,551
2022-10-24T02:49:20,42.805,6.029,CST-1368DR,4530,5088,11950,01.070,551
2022-10-24T02:52:21,42.805,6.029,CST-1368DR,4530,5088,11951,01.070,551
2022-10-24T02:55:23,42.805,6.029,CST-1368DR,4530,5089,11953,01.069,551
2022-10-24T02:58:25,42.805,6.029,CST-1368DR,4530,5088,11950,01.070,551
2022-10-24T03:01:26,42.805,6.029,CST-1368DR,4530,5086,11946,01.072,551
2022-10-24T03:04:28,42.805,6.029,CST-1368DR,4530,5086,11947,01.071,551
2022-10-24T03:07:29,42.805,6.029,CST-1368DR,4530,5081,11933,01.076,551
2022-10-24T03:10:31,42.805,6.029,CST-1368DR,4530,5085,11942,01.073,551
2022-10-24T03:13:32,42.805,6.029,CST-1368DR,4530,5084,11941,01.073,551
2022-10-24T03:16:34,42.805,6.029,CST-1368DR,4530,5095,11967,01.065,551
2022-10-24T03:19:36,42.805,6.029,CST-1368DR,4530,5086,11946,01.072,551
2022-10-24T03:22:37,42.805,6.029,CST-1368DR,4530,5088,11951,01.070,551
2022-10-24T03:25:39,42.805,6.029,CST-1368DR,4530,5084,11941,01.073,551
2022-10-24T03:28:40,42.805,6.029,CST-1368DR,4530,5083,11938,01.074,551
2022-10-24T03:31:42,42.805,6.029,CST-1368DR,4530,5084,11940,01.074,551
2022-10-24T03:34:44,42.805,6.029,CST-1368DR,4530,5084,11941,01.073,551
2022-10-24T03:37:45,42.805,6.029,CST-1368DR,4530,5087,11948,01.071,551
2022-10-24T03:40:47,42.805,6.029,CST-1368DR,4530,5087,11948,01.071,551
2022-10-24T03:43:48,42.805,6.029,CST-1368DR,4530,5085,11944,01.072,551
2022-10-24T03:46:50,42.805,6.029,CST-1368DR,4530,5085,11942,01.073,551
2022-10-24T03:49:51,42.805,6.029,CST-1368DR,4530,5081,11934,01.076,551
2022-10-24T03:52:53,42.805,6.029,CST-1368DR,4530,5083,11938,01.074,551
2022-10-24T03:55:55,42.805,6.029,CST-1368DR,4530,5086,11946,01.072,551
2022-10-24T03:58:56,42.805,6.029,CST-1368DR,4530,5079,11930,01.077,551
2022-10-24T04:01:58,42.805,6.029,CST-1368DR,4530,5085,11942,01.073,551
2022-10-24T04:04:59,42.805,6.029,CST-1368DR,4530,5083,11940,01.074,551
2022-10-24T04:08:01,42.805,6.029,CST-1368DR,4530,5084,11941,01.073,551
2022-10-24T04:11:02,42.805,6.029,CST-1368DR,4530,5082,11937,01.075,551
2022-10-24T04:14:04,42.805,6.029,CST-1368DR,4530,5087,11948,01.071,551
2022-10-24T04:17:06,42.805,6.029,CST-1368DR,4530,5086,11947,01.071,551
2022-10-24T04:20:07,42.805,6.029,CST-1368DR,4530,5087,11948,01.071,551
2022-10-24T04:23:09,42.805,6.029,CST-1368DR,4530,5085,11943,01.073,551
2022-10-24T04:26:10,42.805,6.029,CST-1368DR,4530,5086,11946,01.072,551
2022-10-24T04:29:12,42.805,6.029,CST-1368DR,4530,5088,11950,01.070,551
2022-10-24T04:32:14,42.805,6.029,CST-1368DR,4530,5085,11944,01.072,551
2022-10-24T04:35:15,42.805,6.029,CST-1368DR,4530,5082,11936,01.075,551
2022-10-24T04:38:17,42.805,6.029,CST-1368DR,4530,5085,11944,01.072,551
2022-10-24T04:41:18,42.805,6.029,CST-1368DR,4530,5087,11948,01.071,551
2022-10-24T04:44:20,42.805,6.029,CST-1368DR,4530,5079,11930,01.077,551
2022-10-24T04:47:21,42.805,6.029,CST-1368DR,4530,5080,11931,01.077,551
2022-10-24T04:50:23,42.805,6.029,CST-1368DR,4530,5080,11931,01.077,551
2022-10-24T04:53:25,42.805,6.029,CST-1368DR,4530,5085,11944,01.072,551
2022-10-24T04:56:26,42.805,6.029,CST-1368DR,4530,5083,11939,01.074,551
2022-10-24T04:59:28,42.805,6.029,CST-1368DR,4530,5084,11942,01.073,551
2022-10-24T05:02:29,42.805,6.029,CST-1368DR,4530,5083,11938,01.074,551
2022-10-24T05:05:31,42.805,6.029,CST-1368DR,4530,5084,11940,01.074,551
2022-10-24T05:08:32,42.805,6.029,CST-1368DR,4530,5086,11947,01.071,551
2022-10-24T05:11:34,42.805,6.029,CST-1368DR,4530,5085,11942,01.073,551
2022-10-24T05:14:36,42.805,6.029,CST-1368DR,4530,5083,11940,01.074,551
2022-10-24T05:17:37,42.805,6.029,CST-1368DR,4530,5087,11948,01.071,551
2022-10-24T05:20:39,42.805,6.029,CST-1368DR,4530,5081,11934,01.076,551
2022-10-24T05:23:40,42.805,6.029,CST-1368DR,4530,5088,11951,01.070,551
2022-10-24T05:26:42,42.805,6.029,CST-1368DR,4530,5085,11942,01.073,551
2022-10-24T05:29:44,42.805,6.029,CST-1368DR,4530,5083,11939,01.074,551
2022-10-24T05:32:45,42.805,6.029,CST-1368DR,4530,5079,11930,01.077,551
2022-10-24T05:35:47,42.805,6.029,CST-1368DR,4530,5078,11928,01.078,551
2022-10-24T05:38:48,42.805,6.029,CST-1368DR,4530,5074,11918,01.081,551
2022-10-24T05:41:50,42.805,6.029,CST-1368DR,4530,5078,11927,01.078,551
2022-10-24T05:44:51,42.805,6.029,CST-1368DR,4530,5081,11934,01.076,551
2022-10-24T05:47:53,42.805,6.029,CST-1368DR,4530,5080,11931,01.077,551
2022-10-24T05:50:55,42.805,6.029,CST-1368DR,4530,5081,11933,01.076,551
2022-10-24T05:53:56,42.805,6.029,CST-1368DR,4530,5081,11934,01.076,551
2022-10-24T05:56:58,42.805,6.029,CST-1368DR,4530,5072,11913,01.083,551
2022-10-24T05:59:59,42.805,6.029,CST-1368DR,4530,5081,11933,01.076,551
2022-10-24T06:03:01,42.805,6.029,CST-1368DR,4530,5081,11933,01.076,551
2022-10-24T06:06:03,42.805,6.029,CST-1368DR,4530,5079,11928,01.078,551
2022-10-24T06:09:04,42.805,6.029,CST-1368DR,4530,5083,11938,01.074,551
2022-10-24T06:12:06,42.805,6.029,CST-1368DR,4530,5083,11940,01.074,551
2022-10-24T06:15:07,42.805,6.029,CST-1368DR,4530,5080,11932,01.076,551
2022-10-24T06:18:09,42.805,6.029,CST-1368DR,4530,5073,11914,01.082,551
2022-10-24T06:21:10,42.805,6.029,CST-1368DR,4530,5080,11933,01.076,551
2022-10-24T06:24:12,42.805,6.029,CST-1368DR,4529,5081,11937,01.075,551
2022-10-24T06:27:14,42.805,6.029,CST-1368DR,4530,5073,11914,01.082,551
2022-10-24T06:30:15,42.805,6.029,CST-1368DR,4530,5084,11941,01.073,551
2022-10-24T06:33:17,42.805,6.029,CST-1368DR,4530,5080,11932,01.076,551
2022-10-24T06:36:18,42.805,6.029,CST-1368DR,4529,5079,11933,01.076,551
2022-10-24T06:39:20,42.805,6.029,CST-1368DR,4529,5080,11934,01.076,551
2022-10-24T06:42:21,42.805,6.029,CST-1368DR,4529,5081,11936,01.075,551
2022-10-24T06:45:23,42.805,6.029,CST-1368DR,4529,5081,11937,01.075,551
2022-10-24T06:48:25,42.805,6.029,CST-1368DR,4530,5078,11928,01.078,551
2022-10-24T06:51:26,42.805,6.029,CST-1368DR,4530,5081,11935,01.075,551
2022-10-24T06:54:28,42.805,6.029,CST-1368DR,4530,5083,11938,01.074,551
2022-10-24T06:57:29,42.805,6.029,CST-1368DR,4530,5082,11937,01.075,551
2022-10-24T07:00:31,42.805,6.029,CST-1368DR,4530,5077,11925,01.079,551
2022-10-24T07:03:33,42.805,6.029,CST-1368DR,4529,5087,11950,01.070,551
2022-10-24T07:06:34,42.805,6.029,CST-1368DR,4530,5084,11940,01.074,551
2022-10-24T07:09:36,42.805,6.029,CST-1368DR,4529,5078,11930,01.077,551
2022-10-24T07:12:37,42.805,6.029,CST-1368DR,4530,5085,11942,01.073,551
2022-10-24T07:15:39,42.805,6.029,CST-1368DR,4530,5083,11938,01.074,551
2022-10-24T07:18:40,42.805,6.029,CST-1368DR,4530,5085,11944,01.072,551
2022-10-24T07:21:42,42.805,6.029,CST-1368DR,4530,5080,11933,01.076,551
2022-10-24T07:24:44,42.805,6.029,CST-1368DR,4529,5076,11924,01.079,551
2022-10-24T07:27:45,42.805,6.029,CST-1368DR,4529,5082,11939,01.074,551
2022-10-24T07:30:47,42.805,6.029,CST-1368DR,4529,5081,11937,01.075,551
2022-10-24T07:33:48,42.805,6.029,CST-1368DR,4530,5084,11941,01.073,551
2022-10-24T07:36:50,42.805,6.029,CST-1368DR,4530,5086,11946,01.072,551
2022-10-24T07:39:51,42.805,6.029,CST-1368DR,4530,5078,11927,01.078,551
2022-10-24T07:42:53,42.805,6.029,CST-1368DR,4529,5077,11927,01.078,551
2022-10-24T07:45:55,42.805,6.029,CST-1368DR,4529,5083,11940,01.074,551
2022-10-24T07:48:56,42.805,6.029,CST-1368DR,4530,5078,11927,01.078,551
2022-10-24T07:51:58,42.805,6.029,CST-1368DR,4529,5081,11936,01.075,551
2022-10-24T07:54:59,42.805,6.029,CST-1368DR,4529,5081,11936,01.075,551
2022-10-24T07:58:01,42.805,6.029,CST-1368DR,4530,5085,11944,01.072,551
2022-10-24T08:01:03,42.805,6.029,CST-1368DR,4529,5080,11935,01.075,551
2022-10-24T08:04:04,42.805,6.029,CST-1368DR,4529,5071,11913,01.083,551
2022-10-24T08:07:06,42.805,6.029,CST-1368DR,4529,5072,11916,01.082,551
2022-10-24T08:10:07,42.805,6.029,CST-1368DR,4530,5081,11933,01.076,551
2022-10-24T08:13:09,42.805,6.029,CST-1368DR,4529,5077,11928,01.078,551
2022-10-24T08:16:10,42.805,6.029,CST-1368DR,4529,5077,11927,01.078,551
2022-10-24T08:19:12,42.805,6.029,CST-1368DR,4529,5075,11922,01.080,551
2022-10-24T08:22:14,42.805,6.029,CST-1368DR,4529,5069,11908,01.084,551
2022-10-24T08:25:15,42.805,6.029,CST-1368DR,4529,5073,11917,01.081,551
2022-10-24T08:28:17,42.805,6.029,CST-1368DR,4529,5072,11915,01.082,551
2022-10-24T08:31:18,42.805,6.029,CST-1368DR,4529,5076,11926,01.078,551
2022-10-24T08:34:20,42.805,6.029,CST-1368DR,4529,5072,11915,01.082,551
2022-10-24T08:37:21,42.805,6.029,CST-1368DR,4529,5078,11930,01.077,551
2022-10-24T08:40:23,42.805,6.029,CST-1368DR,4529,5079,11932,01.076,551
2022-10-24T08:43:25,42.805,6.029,CST-1368DR,4529,5069,11908,01.084,551
2022-10-24T08:46:26,42.805,6.029,CST-1368DR,4530,5074,11917,01.081,551
2022-10-24T08:49:28,42.805,6.029,CST-1368DR,4529,5078,11929,01.077,551
2022-10-24T08:52:29,42.805,6.029,CST-1368DR,4529,5067,11904,01.086,551
2022-10-24T08:55:31,42.805,6.029,CST-1368DR,4529,5070,11911,01.083,551
2022-10-24T08:58:33,42.805,6.029,CST-1368DR,4529,5074,11921,01.080,551
2022-10-24T09:01:34,42.805,6.029,CST-1368DR,4529,5072,11914,01.082,551
2022-10-24T09:04:36,42.805,6.029,CST-1368DR,4529,5077,11928,01.078,551
2022-10-24T09:07:37,42.805,6.029,CST-1368DR,4529,5070,11910,01.084,551
2022-10-24T09:10:39,42.805,6.029,CST-1368DR,4529,5078,11930,01.077,551
2022-10-24T09:13:40,42.805,6.029,CST-1368DR,4529,5076,11924,01.079,551
2022-10-24T09:16:42,42.805,6.029,CST-1368DR,4529,5079,11932,01.076,551
2022-10-24T09:19:44,42.805,6.029,CST-1368DR,4529,5077,11927,01.078,551
2022-10-24T09:22:45,42.805,6.029,CST-1368DR,4529,5073,11919,01.081,551
2022-10-24T09:25:47,42.805,6.029,CST-1368DR,4529,5081,11937,01.075,551
2022-10-24T09:28:48,42.805,6.029,CST-1368DR,4529,5078,11930,01.077,551
2022-10-24T09:31:50,42.805,6.029,CST-1368DR,4529,5080,11933,01.076,551
2022-10-24T09:34:51,42.805,6.029,CST-1368DR,4529,5074,11920,01.080,551
2022-10-24T09:37:53,42.805,6.029,CST-1368DR,4529,5078,11929,01.077,551
2022-10-24T09:40:55,42.805,6.029,CST-1368DR,4529,5076,11925,01.079,551
2022-10-24T09:43:56,42.805,6.029,CST-1368DR,4529,5069,11909,01.084,551
2022-10-24T09:46:58,42.805,6.029,CST-1368DR,4529,5076,11924,01.079,551
2022-10-24T09:49:59,42.805,6.029,CST-1368DR,4529,5081,11936,01.075,551
2022-10-24T09:53:01,42.805,6.029,CST-1368DR,4529,5097,11974,01.062,551
2022-10-24T09:56:03,42.805,6.029,CST-1368DR,4530,5099,11976,01.062,551
2022-10-24T09:59:04,42.805,6.029,CST-1368DR,4530,5094,11964,01.066,551
2022-10-24T10:02:06,42.805,6.029,CST-1368DR,4529,5088,11954,01.069,551
2022-10-24T10:05:07,42.805,6.029,CST-1368DR,4529,5088,11953,01.069,551
2022-10-24T10:08:09,42.805,6.029,CST-1368DR,4529,5081,11936,01.075,551
2022-10-24T10:11:10,42.805,6.029,CST-1368DR,4529,5086,11948,01.071,551
2022-10-24T10:14:12,42.805,6.029,CST-1368DR,4529,5086,11949,01.071,551
2022-10-24T10:17:14,42.805,6.029,CST-1368DR,4529,5084,11944,01.072,551
2022-10-24T10:20:15,42.805,6.029,CST-1368DR,4529,5083,11940,01.074,551
2022-10-24T10:23:17,42.805,6.029,CST-1368DR,4529,5089,11954,01.069,551
2022-10-24T10:26:18,42.805,6.029,CST-1368DR,4529,5081,11936,01.075,551
2022-10-24T10:29:20,42.805,6.029,CST-1368DR,4529,5090,11959,01.067,551
2022-10-24T10:32:21,42.805,6.029,CST-1368DR,4529,5084,11944,01.072,551
2022-10-24T10:35:23,42.805,6.029,CST-1368DR,4529,5086,11949,01.071,551
2022-10-24T10:38:25,42.805,6.029,CST-1368DR,4529,5082,11939,01.074,551
2022-10-24T10:41:26,42.805,6.029,CST-1368DR,4529,5084,11943,01.073,551
2022-10-24T10:44:28,42.805,6.029,CST-1368DR,4529,5088,11953,01.069,551
2022-10-24T10:47:29,42.805,6.029,CST-1368DR,4529,5093,11964,01.066,551
2022-10-24T10:50:31,42.805,6.029,CST-1368DR,4529,5085,11946,01.072,551
2022-10-24T10:53:33,42.805,6.029,CST-1368DR,4529,5089,11954,01.069,551
2022-10-24T10:56:34,42.805,6.029,CST-1368DR,4529,5084,11943,01.073,551
2022-10-24T10:59:36,42.805,6.029,CST-1368DR,4529,5085,11946,01.072,551
2022-10-24T11:02:37,42.805,6.029,CST-1368DR,4529,5097,11974,01.062,551
2022-10-24T11:05:39,42.805,6.029,CST-1368DR,4529,5088,11952,01.070,551
2022-10-24T11:08:40,42.805,6.029,CST-1368DR,4529,5081,11937,01.075,551
2022-10-24T11:11:42,42.805,6.029,CST-1368DR,4529,5087,11951,01.070,551
2022-10-24T11:14:44,42.805,6.029,CST-1368DR,4529,5085,11947,01.071,551
2022-10-24T11:17:45,42.805,6.029,CST-1368DR,4529,5082,11940,01.074,551
2022-10-24T11:20:47,42.805,6.029,CST-1368DR,4529,5085,11947,01.071,551
2022-10-24T11:23:48,42.805,6.029,CST-1368DR,4529,5085,11946,01.072,551
2022-10-24T11:26:50,42.805,6.029,CST-1368DR,4529,5086,11948,01.071,551
2022-10-24T11:29:52,42.805,6.029,CST-1368DR,4529,5085,11947,01.071,551
2022-10-24T11:32:53,42.805,6.029,CST-1368DR,4529,5086,11948,01.071,551
2022-10-24T11:35:55,42.805,6.029,CST-1368DR,4529,5087,11950,01.070,551
2022-10-24T11:38:56,42.805,6.029,CST-1368DR,4529,5084,11944,01.072,551
2022-10-24T11:41:58,42.805,6.029,CST-1368DR,4529,5084,11943,01.073,551
2022-10-24T11:44:59,42.805,6.029,CST-1368DR,4529,5080,11935,01.075,551
2022-10-24T11:48:01,42.805,6.029,CST-1368DR,4529,5084,11943,01.073,551
2022-10-24T11:51:03,42.805,6.029,CST-1368DR,4529,5085,11947,01.071,551
2022-10-24T11:54:04,42.805,6.029,CST-1368DR,4529,5083,11941,01.073,551
2022-10-24T11:57:06,42.805,6.029,CST-1368DR,4529,5085,11946,01.072,551
2022-10-24T12:00:07,42.805,6.029,CST-1368DR,4529,5080,11933,01.076,551
2022-10-24T12:03:09,42.805,6.029,CST-1368DR,4529,5087,11951,01.070,551
2022-10-24T12:06:10,42.805,6.029,CST-1368DR,4529,5087,11951,01.070,551
2022-10-24T12:09:12,42.805,6.029,CST-1368DR,4529,5087,11950,01.070,551
2022-10-24T12:12:14,42.805,6.029,CST-1368DR,4529,5087,11950,01.070,551
2022-10-24T12:15:15,42.805,6.029,CST-1368DR,4529,5086,11949,01.071,550
2022-10-24T12:18:17,42.805,6.029,CST-1368DR,4529,5087,11951,01.070,551
2022-10-24T12:21:18,42.805,6.029,CST-1368DR,4529,5087,11950,01.070,551
2022-10-24T12:24:20,42.805,6.029,CST-1368DR,4529,5088,11953,01.069,551
2022-10-24T12:27:22,42.805,6.029,CST-1368DR,4529,5081,11936,01.075,551
2022-10-24T12:30:23,42.805,6.029,CST-1368DR,4529,5088,11953,01.069,550
2022-10-24T12:33:25,42.805,6.029,CST-1368DR,4529,5081,11936,01.075,551
2022-10-24T12:36:26,42.805,6.029,CST-1368DR,4529,5086,11948,01.071,551
2022-10-24T12:39:28,42.805,6.029,CST-1368DR,4529,5088,11954,01.069,551
2022-10-24T12:42:29,42.805,6.029,CST-1368DR,4529,5089,11954,01.069,551
2022-10-24T12:45:31,42.805,6.029,CST-1368DR,4529,5085,11945,01.072,551
2022-10-24T12:48:33,42.805,6.029,CST-1368DR,4529,5085,11947,01.071,551
2022-10-24T12:51:34,42.805,6.029,CST-1368DR,4529,5086,11949,01.071,551
2022-10-24T12:54:36,42.805,6.029,CST-1368DR,4529,5083,11942,01.073,551
2022-10-24T12:57:37,42.805,6.029,CST-1368DR,4529,5083,11942,01.073,551
2022-10-24T13:00:39,42.805,6.029,CST-1368DR,4529,5081,11937,01.075,551
2022-10-24T13:03:41,42.805,6.029,CST-1368DR,4529,5084,11943,01.073,551
2022-10-24T13:06:42,42.805,6.029,CST-1368DR,4529,5082,11939,01.074,551
2022-10-24T13:09:44,42.805,6.029,CST-1368DR,4529,5082,11940,01.074,551
2022-10-24T13:12:45,42.805,6.029,CST-1368DR,4529,5081,11937,01.075,551
2022-10-24T13:15:47,42.805,6.029,CST-1368DR,4529,5081,11937,01.075,551
2022-10-24T13:18:48,42.805,6.029,CST-1368DR,4529,5086,11948,01.071,551
2022-10-24T13:21:50,42.805,6.029,CST-1368DR,4529,5083,11942,01.073,551
2022-10-24T13:24:52,42.805,6.029,CST-1368DR,4529,5085,11945,01.072,551
2022-10-24T13:27:53,42.805,6.029,CST-1368DR,4529,5085,11946,01.072,551
2022-10-24T13:30:55,42.805,6.029,CST-1368DR,4529,5077,11928,01.078,551
2022-10-24T13:33:56,42.805,6.029,CST-1368DR,4529,5085,11946,01.072,551
2022-10-24T13:36:58,42.805,6.029,CST-1368DR,4529,5085,11947,01.071,551
2022-10-24T13:39:59,42.805,6.029,CST-1368DR,4529,5087,11951,01.070,551
2022-10-24T13:43:01,42.805,6.029,CST-1368DR,4529,5088,11953,01.069,551
2022-10-24T13:46:03,42.805,6.029,CST-1368DR,4529,5087,11950,01.070,551
2022-10-24T13:49:04,42.805,6.029,CST-1368DR,4529,5086,11949,01.071,551
2022-10-24T13:52:06,42.805,6.029,CST-1368DR,4529,5087,11950,01.070,551
2022-10-24T13:55:07,42.805,6.029,CST-1368DR,4529,5086,11949,01.071,551
2022-10-24T13:58:09,42.805,6.029,CST-1368DR,4529,5086,11949,01.071,551
2022-10-24T14:01:10,42.805,6.029,CST-1368DR,4529,5087,11950,01.070,551
2022-10-24T14:04:12,42.805,6.029,CST-1368DR,4529,5086,11949,01.071,551
2022-10-24T14:07:14,42.805,6.029,CST-1368DR,4529,5086,11949,01.071,551
2022-10-24T14:10:15,42.805,6.029,CST-1368DR,4529,5088,11953,01.069,551
2022-10-24T14:13:17,42.805,6.029,CST-1368DR,4529,5085,11945,01.072,551
2022-10-24T14:16:18,42.805,6.029,CST-1368DR,4529,5086,11948,01.071,551
2022-10-24T14:19:20,42.805,6.029,CST-1368DR,4529,5090,11957,01.068,551
2022-10-24T14:22:22,42.805,6.029,CST-1368DR,4529,5087,11951,01.070,551
2022-10-24T14:25:23,42.805,6.029,CST-1368DR,4529,5089,11956,01.068,551
2022-10-24T14:28:25,42.805,6.029,CST-1368DR,4529,5088,11952,01.070,551
2022-10-24T14:31:26,42.805,6.029,CST-1368DR,4529,5086,11949,01.071,551
2022-10-24T14:34:28,42.805,6.029,CST-1368DR,4529,5078,11929,01.077,551
2022-10-24T14:37:29,42.805,6.029,CST-1368DR,4529,5077,11927,01.078,551
2022-10-24T14:40:31,42.805,6.029,CST-1368DR,4529,5088,11953,01.069,551
2022-10-24T14:43:33,42.805,6.029,CST-1368DR,4529,5081,11936,01.075,551
2022-10-24T14:46:34,42.805,6.029,CST-1368DR,4529,5085,11946,01.072,551
2022-10-24T14:49:36,42.805,6.029,CST-1368DR,4529,5088,11954,01.069,551
2022-10-24T14:52:37,42.805,6.029,CST-1368DR,4529,5088,11954,01.069,551
2022-10-24T14:55:39,42.805,6.029,CST-1368DR,4529,5088,11952,01.070,551
2022-10-24T14:58:40,42.805,6.029,CST-1368DR,4529,5087,11951,01.070,551
2022-10-24T15:01:42,42.805,6.029,CST-1368DR,4529,5088,11953,01.069,551
2022-10-24T15:04:44,42.805,6.029,CST-1368DR,4529,5089,11956,01.068,551
2022-10-24T15:07:45,42.805,6.029,CST-1368DR,4529,5091,11960,01.067,551
2022-10-24T15:10:47,42.805,6.029,CST-1368DR,4529,5090,11959,01.067,551
2022-10-24T15:13:48,42.805,6.029,CST-1368DR,4529,5088,11953,01.069,551
2022-10-24T15:16:50,42.805,6.029,CST-1368DR,4529,5090,11957,01.068,551
2022-10-24T15:19:52,42.805,6.029,CST-1368DR,4529,5088,11952,01.070,551
2022-10-24T15:22:53,42.805,6.029,CST-1368DR,4529,5088,11953,01.069,551
2022-10-24T15:25:55,42.805,6.029,CST-1368DR,4529,5087,11951,01.070,551
2022-10-24T15:28:56,42.805,6.029,CST-1368DR,4529,5088,11953,01.069,551
2022-10-24T15:31:58,42.805,6.029,CST-1368DR,4529,5088,11952,01.070,551
2022-10-24T15:34:59,42.805,6.029,CST-1368DR,4529,5087,11951,01.070,551
2022-10-24T15:38:01,42.805,6.029,CST-1368DR,4529,5087,11951,01.070,551
2022-10-24T15:41:03,42.805,6.029,CST-1368DR,4529,5087,11950,01.070,551
2022-10-24T15:44:04,42.805,6.029,CST-1368DR,4529,5077,11927,01.078,551
2022-10-24T15:47:06,42.805,6.029,CST-1368DR,4529,5086,11949,01.071,551
2022-10-24T15:50:07,42.805,6.029,CST-1368DR,4529,5086,11949,01.071,551
2022-10-24T15:53:09,42.805,6.029,CST-1368DR,4529,5087,11950,01.070,551
2022-10-24T15:56:10,42.805,6.029,CST-1368DR,4529,5087,11950,01.070,551
2022-10-24T15:59:12,42.805,6.029,CST-1368DR,4529,5087,11951,01.070,551
2022-10-24T16:02:14,42.805,6.029,CST-1368DR,4529,5085,11947,01.071,551
2022-10-24T16:05:15,42.805,6.029,CST-1368DR,4529,5083,11942,01.073,550
2022-10-24T16:08:17,42.805,6.029,CST-1368DR,4529,5086,11948,01.071,551
2022-10-24T16:11:18,42.805,6.029,CST-1368DR,4529,5086,11949,01.071,551
2022-10-24T16:14:20,42.805,6.029,CST-1368DR,4529,5091,11959,01.067,551
2022-10-24T16:17:22,42.805,6.029,CST-1368DR,4529,5089,11954,01.069,551
2022-10-24T16:20:23,42.805,6.029,CST-1368DR,4529,5088,11952,01.070,551
2022-10-24T16:23:25,42.805,6.029,CST-1368DR,4529,5091,11961,01.067,551
2022-10-24T16:26:26,42.805,6.029,CST-1368DR,4529,5092,11962,01.066,551
2022-10-24T16:29:28,42.805,6.029,CST-1368DR,4529,5092,11961,01.067,551
2022-10-24T16:32:29,42.805,6.029,CST-1368DR,4529,5087,11951,01.070,551
2022-10-24T16:35:31,42.805,6.029,CST-1368DR,4529,5092,11963,01.066,551
2022-10-24T16:38:33,42.805,6.029,CST-1368DR,4529,5093,11965,01.065,551